Wind_Speed
14 14 15 16 16 18 19 19 19 17 16 14 13 13 9 7 7 6 6 9 5 9 4 5 4 11 16 5 9 6 3 3 5 7 7 11 5 4 9 13 7 4 6 9 24
14 14 15 16 17 19 19 22 20 18 17 14 14 13 9 8 7 10 13 11 9 5 7 10 6 9 4 5 5 5 5 11 8 11 10 15 18 13 4 2 5 5 9 27 27
14 14 15 16 17 19 20 22 20 19 18 15 14 12 6 6 4 2 5 13 8 8 9 10 13 6 6 7 8 7 6 9 9 15 18 18 14 12 6 3 7 13 20 20 23
15 15 16 17 18 20 20 21 20 19 18 16 13 9 3 3 4 2 7 13 9 7 11 15 8 5 4 6 10 7 14 13 12 13 10 2 9 12 7 5 1 19 17 18 16
15 16 17 18 19 20 21 21 21 19 19 15 11 5 3 2 6 3 8 9 10 10 12 10 6 6 7 7 10 11 9 8 15 10 4 2 8 11 5 8 7 18 15 14 15
15 17 17 18 19 21 21 21 22 19 18 13 7 4 2 4 3 6 10 12 9 11 12 15 7 8 8 10 9 10 13 7 7 9 4 3 2 4 7 11 12 13 13 9 14
16 17 18 19 20 21 22 22 22 19 17 10 4 4 4 9 5 9 12 10 11 13 11 14 15 6 10 10 12 11 10 9 12 14 8 7 2 6 9 15 16 17 16 12 14
17 17 18 19 21 22 22 24 22 20 12 5 3 2 6 6 9 15 9 11 17 12 19 16 10 9 6 11 12 10 8 5 11 14 9 14 7 5 1 9 3 21 19 17 13
18 18 19 20 21 22 24 25 22 14 5 2 2 3 7 9 8 18 14 16 18 13 8 10 8 5 8 7 6 6 1 7 16 20 15 5 8 5 9 12 15 20 20 20 17
20 19 19 20 20 23 25 25 14 2 1 1 8 5 6 9 11 19 19 18 6 6 5 1 3 4 5 3 6 9 5 3 9 8 12 13 16 10 14 16 12 23 30 22 16
23 22 21 21 21 22 27 9 3 1 4 8 4 5 9 9 18 13 17 12 7 4 6 6 3 7 11 11 14 11 9 10 11 17 4 9 7 13 13 15 12 27 22 31 15
24 25 23 22 22 21 17 3 5 5 9 14 19 20 26 11 7 9 19 7 6 8 8 5 9 13 15 15 12 9 7 7 4 20 13 11 7 5 6 6 13 20 20 29 20
24 26 26 22 21 10 10 16 9 13 4 10 15 12 14 13 9 14 15 11 7 9 9 9 14 12 14 11 10 8 6 8 7 9 10 4 3 3 4 5 5 19 17 9 17
25 26 25 25 10 14 8 9 11 13 3 7 8 9 14 8 11 13 24 13 7 13 12 9 15 17 10 6 7 8 10 12 10 2 3 2 5 4 2 4 1 2 12 8 7
26 26 23 20 16 7 12 14 12 6 4 4 7 10 8 15 4 16 27 13 15 13 7 9 9 10 10 9 8 10 10 9 5 7 7 10 3 5 4 2 5 11 8 8 12
26 26 25 8 11 11 16 14 9 0 7 4 6 6 7 7 14 8 13 9 9 11 12 14 14 11 9 9 11 8 6 8 2 3 4 8 3 3 6 7 3 8 14 13 16
28 26 27 15 6 5 11 5 1 4 7 6 7 12 10 10 14 11 13 12 8 6 9 13 15 13 3 4 11 6 2 4 5 3 7 2 2 4 7 7 6 12 16 12 14
30 28 19 19 16 9 9 1 5 8 11 11 6 13 14 13 15 16 10 12 12 11 6 8 8 13 11 10 9 7 9 6 5 3 4 8 3 5 6 5 9 15 19 13 9
30 17 12 14 10 9 1 3 7 5 8 14 15 7 7 14 13 17 16 14 12 11 9 4 12 12 17 9 11 7 2 11 4 4 3 3 4 5 6 7 8 17 19 14 13
22 8 12 16 12 9 1 5 7 10 15 14 13 7 5 7 8 7 11 14 14 17 16 10 10 9 11 12 8 7 5 2 2 3 6 5 4 4 7 8 3 15 14 15 13
6 3 10 22 20 3 4 6 8 16 14 6 12 10 11 8 10 12 10 7 18 15 16 15 7 13 7 2 9 2 3 3 2 4 5 2 5 9 14 5 5 13 11 16 14
7 3 19 27 3 4 7 5 7 19 21 15 8 7 9 14 13 14 11 10 9 15 12 11 7 5 10 14 6 5 8 8 5 9 1 3 4 16 10 8 7 7 8 11 15
5 4 14 18 4 7 8 17 19 19 19 16 9 6 9 10 7 8 11 6 12 9 6 1 3 1 9 8 5 6 8 6 6 4 3 2 3 4 10 10 7 7 7 5 14
4 3 4 5 5 9 12 13 15 17 20 20 14 7 8 9 9 8 12 7 13 3 4 8 2 8 7 6 2 3 8 8 6 4 6 6 9 8 14 16 7 11 21 13 9
3 2 4 3 3 9 9 12 16 17 14 16 6 6 10 7 8 9 11 10 14 2 3 3 1 3 8 7 13 11 10 8 7 9 7 8 15 12 12 14 8 18 20 21 9
5 4 6 8 8 10 9 8 14 19 16 5 6 10 14 8 8 8 8 6 5 10 3 2 3 4 7 11 15 6 21 10 11 12 8 7 3 7 10 21 18 23 26 23 8
15 9 4 6 8 7 8 12 15 14 19 16 14 12 12 14 6 7 7 6 5 2 3 3 3 1 5 9 12 8 3 6 4 2 3 6 7 8 5 7 15 14 16 11 10
Wind_Direction
19 16 12 10 4 1 357 353 349 347 343 338 335 327 317 303 296 287 240 222 239 228 248 237 210 239 251 248 259 269 94 206 238 213 243 279 68 13 107 146 187 122 171 148 159
11 9 5 4 0 359 355 353 351 350 344 336 332 332 327 318 311 244 255 231 247 220 204 225 216 226 243 247 240 155 164 199 218 218 267 279 118 56 293 238 83 118 154 142 148
2 1 359 357 355 353 353 352 351 349 345 337 332 335 339 359 283 202 232 213 232 225 210 236 253 243 253 257 249 216 205 224 243 240 241 265 109 169 163 298 185 166 146 156 158
357 353 353 351 349 348 348 349 349 348 345 339 335 349 43 44 39 190 152 209 233 212 212 245 245 265 260 270 264 255 246 222 268 230 226 306 132 159 162 208 271 153 156 160 159
352 350 349 346 344 343 342 343 345 343 343 337 339 10 27 242 253 172 181 188 182 173 227 246 232 264 251 261 287 265 254 256 230 268 256 339 108 133 144 128 130 142 155 167 165
348 346 344 341 340 339 337 336 338 336 339 334 340 6 334 264 193 164 169 168 176 179 229 258 243 242 270 282 292 294 299 307 278 289 258 104 131 87 155 130 128 157 169 194 156
347 341 342 340 337 334 331 330 328 327 332 327 329 14 265 241 203 156 164 179 178 195 231 242 270 292 307 307 269 300 281 302 15 359 301 161 120 142 126 149 161 177 176 200 154
346 341 339 337 335 330 325 323 318 318 319 312 332 75 251 180 166 156 173 195 199 212 250 290 249 287 291 292 306 306 306 15 326 352 314 24 254 230 299 50 253 183 176 158 161
346 340 335 333 333 328 323 320 313 308 300 288 356 212 270 186 207 191 182 207 212 226 264 272 285 270 294 277 295 265 218 56 347 309 298 97 298 189 127 144 266 339 160 158 152
346 340 331 329 331 327 323 323 318 293 330 325 268 311 267 222 180 199 202 222 138 234 265 280 309 247 287 249 247 277 110 166 212 264 258 284 274 195 164 159 115 82 347 318 155
346 338 329 326 327 327 327 328 323 25 222 231 208 265 301 205 139 180 203 217 167 204 227 213 186 238 241 235 242 264 283 181 221 237 294 253 281 169 157 170 130 110 170 256 179
344 339 330 323 321 323 316 263 51 291 296 270 262 261 268 248 170 196 186 183 182 217 212 282 236 239 255 273 283 303 321 302 251 215 192 245 159 211 218 168 144 128 167 221 251
343 339 334 322 317 326 304 286 4 332 268 277 230 225 231 231 201 194 172 202 194 225 231 211 247 243 231 262 292 290 272 281 261 302 203 177 205 222 328 24 61 163 189 111 8
343 339 337 332 308 328 297 26 358 330 300 265 201 216 212 202 228 227 181 179 225 218 222 233 248 260 262 244 254 274 270 276 266 266 251 92 260 350 354 273 307 205 39 354 2
338 336 333 330 300 306 340 350 331 314 334 227 177 163 168 190 256 215 180 194 213 240 200 246 254 252 246 257 248 243 270 290 360 14 23 311 15 293 130 299 218 126 149 171 249
331 331 328 328 303 302 311 313 310 320 246 258 129 158 163 190 235 272 163 185 220 248 253 256 257 259 225 237 249 263 295 337 350 53 326 257 213 225 199 185 202 149 181 202 244
325 322 312 286 233 2 359 323 119 231 286 238 166 172 206 190 225 236 171 190 207 209 250 274 269 258 227 318 309 218 47 345 336 340 233 270 48 311 246 196 163 151 187 178 115
322 318 296 264 261 300 294 296 233 239 243 309 278 207 188 202 209 222 195 195 205 231 266 224 273 234 207 190 214 234 157 164 243 243 278 353 122 263 274 289 183 150 129 126 129
324 325 267 268 219 218 292 210 204 227 278 344 335 305 225 200 209 201 210 196 208 189 219 266 243 262 217 194 173 267 212 203 214 276 355 226 310 46 346 49 97 142 131 143 144
328 294 254 230 190 172 184 258 243 280 313 327 312 308 271 267 287 253 204 199 213 213 199 251 277 283 297 190 186 169 241 7 332 269 272 231 51 179 339 308 245 131 139 153 138
309 265 242 177 156 158 214 236 275 275 276 279 314 318 321 321 318 299 213 218 208 218 200 219 186 276 341 315 169 166 240 287 165 171 194 124 263 183 188 272 306 53 180 150 135
309 267 145 150 159 198 232 251 273 287 297 297 256 289 299 304 307 312 297 182 236 208 206 203 187 209 259 277 205 184 201 193 144 281 163 134 35 130 174 156 125 27 77 186 143
306 287 178 179 220 236 241 241 258 270 272 277 280 217 270 281 304 303 324 319 347 317 147 173 181 58 318 327 236 200 241 215 180 131 250 133 198 241 98 80 53 320 328 333 130
280 275 228 200 231 263 284 275 258 243 254 271 275 274 270 268 285 282 303 322 323 104 38 69 31 162 212 220 183 291 258 234 180 138 235 225 145 212 134 147 131 113 312 309 183
237 323 25 342 279 330 288 266 291 289 286 234 268 270 280 248 274 278 285 291 300 210 72 72 305 330 304 287 278 289 234 268 263 229 170 212 176 174 170 148 143 139 179 223 152
348 352 333 299 317 319 302 292 274 272 280 262 183 251 268 262 228 255 272 285 267 325 301 137 269 306 304 306 302 344 293 239 245 222 227 113 93 181 167 137 149 144 159 206 162
359 341 289 305 314 305 288 287 300 297 274 288 289 211 242 267 342 309 293 276 292 18 304 221 142 320 268 296 308 302 253 356 307 345 167 162 185 197 100 126 136 146 153 159 107
Height
795 793 792 789 787 784 781 778 775 772 769 767 764 762 760 760 759 758 755 749 749 751 754 756 758 758 756 756 751 746 791 803 787 781 767 736 747 741 736 750 753 750 751 755 767
796 794 792 789 787 784 781 777 774 771 768 766 763 760 759 758 757 754 744 745 747 750 752 754 754 753 759 754 752 761 792 781 755 756 752 739 742 749 753 757 758 755 752 758 764
796 794 792 789 786 784 781 778 773 770 767 764 761 760 758 757 758 741 740 743 746 748 751 752 751 750 759 750 748 751 776 750 745 741 738 744 736 733 755 758 751 758 751 756 761
796 794 791 789 786 783 780 777 773 769 766 763 761 759 758 758 765 741 740 743 746 747 750 750 749 757 761 763 739 758 737 737 732 734 735 731 728 747 734 738 732 739 744 750 756
796 793 791 788 785 782 779 776 773 769 765 763 761 759 759 760 748 740 741 743 745 747 749 748 751 754 765 751 743 746 735 725 723 725 718 718 730 733 735 725 733 738 743 746 751
796 793 790 787 784 781 778 774 771 768 765 762 761 760 761 764 740 740 741 743 745 748 748 746 746 742 750 749 750 733 730 727 724 721 716 730 731 726 735 728 735 742 744 746 746
795 792 789 786 783 779 776 773 770 767 764 762 761 761 761 751 739 740 741 743 745 746 745 742 740 744 743 751 730 733 746 732 738 735 729 724 741 742 729 729 736 742 743 749 748
795 792 788 785 781 777 773 770 767 765 763 762 761 762 757 740 738 740 742 745 745 744 743 741 739 740 744 737 740 749 746 771 749 737 734 739 762 731 723 727 733 737 735 741 745
794 791 787 783 780 775 770 767 763 761 761 761 762 762 755 739 738 738 740 741 742 744 742 741 739 746 746 761 772 757 784 783 771 730 735 748 758 724 719 719 730 765 728 730 740
794 790 786 782 779 773 768 763 759 758 760 761 763 766 745 736 731 735 738 739 741 744 745 746 750 764 762 773 801 777 783 777 779 744 733 742 747 732 725 735 760 750 761 777 742
793 788 784 780 777 773 766 763 763 764 760 753 747 739 728 728 730 733 736 737 740 746 767 754 775 784 766 754 747 747 752 764 757 736 748 749 747 730 729 738 747 764 776 779 745
793 788 783 778 774 771 768 766 763 765 765 742 735 732 726 726 734 730 734 745 750 767 757 768 781 752 740 736 741 745 753 757 737 735 752 744 738 736 731 735 729 756 764 756 756
792 787 783 777 772 769 768 765 762 760 766 736 723 723 723 721 729 731 730 739 751 763 760 774 752 732 740 744 748 748 754 753 751 730 736 728 746 746 737 737 739 748 744 743 752
791 787 782 776 774 769 767 764 762 761 783 743 723 711 713 715 730 715 721 733 745 757 754 756 735 737 741 745 742 768 732 731 735 746 779 734 796 758 753 747 741 742 728 737 732
790 786 783 780 776 772 768 764 763 762 806 708 710 694 700 718 715 717 715 727 746 747 745 755 741 741 745 741 730 750 725 733 732 754 765 758 779 769 753 754 745 740 742 734 734
789 785 781 779 775 771 767 765 764 791 800 723 706 715 721 717 718 712 717 720 723 740 736 736 716 724 728 719 721 717 729 739 734 756 803 768 769 785 764 748 744 741 736 738 744
785 782 778 777 772 768 767 766 793 799 729 725 726 716 724 730 729 723 731 743 757 772 770 744 734 716 710 731 724 726 750 805 808 806 810 750 762 775 742 728 729 738 737 738 733
779 774 769 768 769 770 769 781 800 753 746 710 715 714 727 721 724 722 733 747 736 746 762 773 774 727 708 728 742 740 756 801 810 809 788 758 776 779 743 715 721 729 732 736 742
774 768 764 761 764 769 775 794 777 751 728 725 717 724 724 713 715 720 727 735 729 733 766 762 754 704 702 703 719 738 759 740 772 764 785 777 758 746 742 727 727 735 735 743 744
773 768 756 756 762 767 779 779 756 732 727 727 744 725 731 723 726 723 728 713 718 711 717 735 765 717 698 696 706 722 719 763 772 796 803 785 780 787 765 754 731 737 741 744 741
773 765 742 752 761 769 782 769 748 731 728 735 737 736 731 731 726 726 717 702 699 702 703 719 744 734 713 718 730 732 743 740 755 768 796 799 786 751 757 760 752 744 739 744 746
774 768 747 752 768 766 770 757 746 737 729 730 724 731 738 732 735 729 718 700 680 686 711 707 732 753 736 704 693 702 727 738 779 776 764 768 774 737 748 746 740 743 750 749 746
782 766 748 748 770 765 755 751 743 740 733 729 727 722 724 736 749 722 709 680 680 684 700 699 733 760 754 731 706 717 714 719 731 743 764 780 780 741 742 742 734 742 760 754 747
785 769 751 747 749 756 757 751 744 727 728 722 723 720 729 736 728 730 716 691 685 691 689 693 721 744 765 743 722 727 717 711 729 763 759 754 757 752 747 746 746 751 767 768 754
782 767 767 763 755 757 751 749 746 740 720 717 724 725 732 742 737 734 716 708 696 690 688 705 733 724 724 716 709 710 711 705 723 726 750 738 735 735 747 758 758 756 767 770 760
786 786 777 773 761 757 751 750 743 734 728 723 728 725 724 737 730 734 720 719 716 704 700 699 734 721 734 716 713 718 703 700 698 704 711 718 739 726 734 746 751 757 756 764 765
798 795 788 772 767 763 754 744 735 731 720 716 716 720 725 718 709 707 704 704 704 710 716 718 727 737 753 728 725 743 713 705 703 696 705 726 722 722 722 729 736 740 744 751 752